GEFSSE_500_meanwind_030.txt.gz
Wind_Speed
9 10 10 11 12 13 15 16 16 17 17 16 15 13 11 8 6 5 4 3 2 1 0 1 2 3 3 4 7 10 13 15 16 15 14 14 13 13 12 12 11 11 12
8 8 9 10 11 12 14 15 16 17 17 16 16 15 13 10 7 6 4 3 2 1 0 0 1 2 3 4 6 7 10 12 14 15 15 15 15 14 14 14 14 14 14
6 7 8 8 9 11 12 14 15 16 16 17 17 16 15 12 10 7 5 4 3 2 1 1 1 1 2 3 5 6 7 8 10 12 14 16 15 14 13 13 13 14 14
4 6 6 7 8 9 10 11 13 14 15 16 16 16 15 14 12 9 7 5 4 3 2 1 1 1 2 3 5 5 6 6 7 9 10 12 12 11 10 10 11 12 13
3 4 5 6 6 7 8 9 10 12 13 14 14 15 15 15 13 12 10 7 5 4 3 2 2 2 3 4 5 6 6 6 6 8 9 8 7 7 6 7 8 9 10
3 3 4 4 5 5 6 6 7 9 10 11 12 12 13 13 13 12 11 10 8 6 4 3 3 2 3 4 6 7 8 8 7 7 8 6 4 4 2 3 4 6 7
5 4 3 3 4 4 5 5 5 6 7 8 9 10 11 11 12 12 12 11 10 8 7 5 4 3 3 3 5 7 9 8 8 8 7 6 4 3 2 3 4 5 5
6 5 4 3 2 3 3 3 4 4 5 6 6 7 8 9 10 11 12 12 11 10 8 6 4 3 3 1 3 6 8 8 8 7 8 6 3 3 4 5 5 6 5
6 7 6 5 3 2 1 1 1 2 3 3 4 4 5 6 7 8 10 11 11 10 9 7 5 3 2 1 2 5 7 8 8 7 6 5 5 4 5 6 6 6 6
6 7 7 7 6 5 4 3 2 1 1 2 2 3 3 4 5 6 7 8 9 9 9 7 5 3 2 1 1 3 5 6 7 7 8 7 6 6 6 7 7 8 7
4 6 7 8 8 8 8 7 6 6 5 4 4 3 3 3 4 5 6 6 7 7 8 7 6 4 3 2 0 2 3 5 5 7 8 7 7 7 7 7 7 7 8
5 5 6 8 9 10 11 11 10 10 9 8 8 7 6 5 5 6 6 6 6 6 6 6 6 5 4 2 1 1 3 4 4 7 8 8 8 8 8 8 7 7 7
7 7 7 8 9 10 11 12 12 12 12 11 11 10 9 8 8 8 7 7 6 6 6 5 5 5 4 4 3 2 3 4 4 7 8 9 9 9 9 9 8 8 7
11 11 10 10 10 11 12 13 13 14 14 14 14 13 12 12 11 11 10 9 9 8 7 7 6 6 5 4 4 4 4 5 5 8 9 10 11 11 12 12 11 11 11
13 13 13 13 12 13 14 14 15 16 16 16 16 16 16 16 15 14 13 12 11 11 10 9 8 8 7 6 6 6 6 6 7 9 10 11 13 14 14 15 15 15 15
16 16 16 16 16 16 16 16 17 18 18 18 19 19 19 19 18 17 16 15 14 14 13 12 11 10 9 9 9 8 8 8 8 10 11 13 14 15 16 17 18 19 19
20 20 19 19 19 19 18 19 19 20 20 20 21 21 21 21 21 20 19 18 17 16 16 15 14 13 12 12 11 11 11 10 11 11 12 13 15 16 17 19 20 22 23
24 24 22 22 22 22 22 22 21 21 21 22 22 23 23 23 23 22 21 20 20 19 18 17 17 16 16 15 15 14 13 13 13 14 14 15 17 18 19 20 21 22 24
28 28 27 25 25 25 24 25 24 24 23 23 23 23 24 25 25 24 23 23 22 21 21 21 20 20 19 19 18 17 16 16 16 17 17 18 19 19 20 21 22 23 24
33 32 32 30 29 29 28 28 27 27 26 25 24 24 25 26 26 25 25 25 25 24 24 23 23 23 22 22 20 19 19 19 19 20 21 22 22 21 22 23 23 23 24
37 36 36 35 33 32 32 31 31 31 30 28 26 25 26 26 26 26 27 27 26 27 26 26 26 25 24 24 23 22 22 22 22 23 24 26 25 24 25 24 24 24 24
38 38 37 37 36 35 35 35 35 35 33 32 30 28 28 28 28 27 29 29 29 29 29 27 26 25 24 23 23 23 23 24 25 24 25 27 27 26 27 26 25 25 24
37 36 36 36 36 36 36 36 37 37 36 34 33 31 30 30 30 30 31 32 32 31 31 30 28 26 24 24 24 24 24 25 25 26 26 27 29 28 28 29 27 26 24
33 33 34 34 35 36 37 38 38 39 38 36 36 35 34 33 33 33 32 32 33 32 32 32 30 28 27 26 25 25 25 26 26 27 28 28 29 30 29 29 29 27 26
30 31 32 33 34 36 37 37 38 38 39 38 38 38 37 36 36 36 35 34 34 33 32 32 31 29 27 26 25 25 25 26 27 27 28 29 29 29 29 28 28 29 27
31 31 32 33 34 36 37 38 38 39 40 40 41 40 39 38 37 37 36 36 35 34 32 31 31 30 29 27 26 25 26 27 28 28 28 29 29 28 27 27 28 28 28

GEFSSE_500_meanwind_036.txt.gz
Wind_Speed
9 11 11 13 14 14 15 15 15 15 16 16 15 14 12 10 8 7 6 5 5 4 4 5 5 6 6 8 11 14 16 16 18 18 17 15 13 12 11 10 9 9 8
8 9 10 11 12 13 13 14 14 14 15 16 15 15 14 12 10 8 7 6 5 4 3 3 4 4 5 6 8 11 13 15 16 17 16 15 15 14 12 12 11 10 9
7 8 8 9 10 11 11 12 12 13 14 15 15 15 14 14 12 10 8 7 6 4 3 3 3 4 4 6 7 8 10 12 15 16 16 16 15 15 14 12 11 9 9
6 6 7 8 8 9 9 10 10 11 11 13 14 14 14 14 13 12 10 7 6 4 3 2 3 3 4 5 6 7 8 9 12 13 13 13 15 15 14 11 9 8 8
5 5 6 7 7 7 7 7 7 8 9 10 11 12 13 14 14 13 11 9 7 5 3 1 1 2 3 4 5 7 7 7 8 9 9 9 9 11 10 8 6 6 6
4 4 5 5 6 6 5 4 4 5 6 7 8 9 11 12 14 13 12 10 8 6 4 2 0 2 2 3 5 6 7 8 7 6 6 6 6 6 6 4 3 3 3
3 4 4 4 5 5 4 3 2 2 3 4 5 7 8 10 11 12 12 11 9 7 5 3 1 1 2 2 4 5 7 8 7 5 3 3 4 4 4 3 2 1 0
4 4 4 3 4 4 4 3 1 0 1 3 4 4 5 7 8 10 10 10 10 9 8 6 3 2 2 1 2 4 6 7 6 4 3 2 3 4 3 2 1 1 1
4 5 5 5 4 4 4 3 2 2 2 3 4 4 5 5 6 7 8 9 9 10 10 9 7 5 3 2 1 3 5 6 6 4 3 3 3 3 2 1 1 0 1
4 6 6 6 6 5 5 4 4 4 4 5 5 6 6 6 6 6 6 7 8 9 10 10 9 7 5 4 3 3 4 5 5 5 4 3 2 2 2 1 1 1 1
4 6 7 8 8 7 7 6 6 6 6 7 7 8 9 9 8 8 7 7 7 8 9 9 9 8 6 5 4 3 3 4 4 4 4 3 2 2 2 2 2 2 2
6 7 8 8 9 9 8 8 8 7 7 8 9 10 11 11 11 10 10 9 8 8 8 8 8 8 7 5 3 2 2 3 3 3 3 3 3 3 3 3 2 3 2
9 9 10 10 9 9 9 9 9 9 9 8 9 11 12 13 13 12 12 11 10 10 9 8 7 7 7 5 3 1 1 2 3 3 4 4 5 4 4 4 4 4 3
12 12 12 12 11 11 10 10 10 10 10 10 10 11 13 14 15 14 14 14 13 12 11 10 9 8 7 6 4 2 2 3 3 3 4 5 5 6 6 6 6 6 6
15 15 14 14 14 13 13 12 12 12 12 12 12 12 13 15 16 16 16 16 15 15 14 13 11 10 9 9 7 5 4 4 4 5 5 6 6 7 7 8 8 9 9
20 18 17 16 16 16 16 15 15 15 15 15 15 15 15 15 16 17 17 17 17 17 16 16 14 13 12 11 10 9 8 8 6 6 7 7 7 8 8 9 10 10 11
23 22 21 20 19 19 19 18 18 18 17 18 17 17 17 16 17 17 18 18 19 19 18 18 17 16 15 13 12 12 12 12 10 9 9 8 9 10 10 11 11 12 13
26 25 24 24 23 22 22 21 20 20 20 20 20 19 19 18 18 19 19 19 20 20 20 19 20 19 18 17 15 14 14 14 14 13 12 12 12 12 13 13 13 14 15
30 29 28 27 26 25 24 23 23 23 23 23 23 22 22 21 20 20 20 20 21 21 21 21 21 22 21 20 19 18 18 17 17 16 16 16 15 15 16 16 17 17 17
34 33 32 31 30 29 28 27 26 26 27 27 27 26 25 24 23 22 22 21 21 21 21 21 21 22 23 23 22 22 22 21 20 19 19 19 18 18 18 18 18 19 20
38 38 38 36 35 33 32 31 30 30 30 31 30 30 29 28 26 25 24 23 23 22 21 22 23 23 24 25 24 24 25 25 23 21 21 21 21 21 21 20 20 21 22
41 41 41 40 39 38 36 34 34 34 33 33 33 33 33 32 29 27 26 25 24 24 23 22 23 24 25 26 27 27 27 27 26 24 23 23 22 22 22 22 22 23 23
42 43 43 43 42 41 40 38 36 35 35 34 35 35 35 32 30 28 27 25 24 24 24 23 22 23 24 26 28 29 28 28 27 27 26 25 23 22 23 23 23 24 25
42 42 42 42 42 41 40 38 37 35 35 35 35 34 34 33 31 30 29 28 26 25 25 24 23 24 25 26 27 29 29 29 28 28 28 27 26 24 23 23 23 24 25
40 41 41 41 41 40 39 38 36 35 34 34 34 34 34 32 32 32 30 29 27 26 26 26 25 25 25 26 27 29 30 30 30 29 29 29 28 27 25 24 23 23 25
36 38 38 39 39 39 39 37 36 35 34 34 34 34 35 34 33 32 31 31 29 28 28 25 25 26 26 27 28 29 31 32 32 31 30 30 29 28 27 26 25 24 24

GEFSSE_500_meanwind_042.txt.gz
Wind_Speed
10 11 11 12 13 14 15 16 17 18 18 17 16 15 13 11 9 7 6 4 3 3 2 2 2 3 4 6 9 12 16 17 17 16 15 13 12 12 11 11 10 10 9
8 9 9 10 11 12 13 15 16 16 17 17 17 16 14 12 10 8 7 5 4 3 2 1 1 2 2 3 5 8 11 14 15 16 16 15 15 14 14 13 12 11 10
6 6 7 8 9 10 11 12 14 15 16 16 16 16 15 14 12 10 9 7 5 4 2 1 1 1 2 3 4 6 8 11 13 14 15 16 15 15 14 14 13 12 10
5 4 4 5 6 7 9 10 12 13 14 14 15 15 15 14 13 12 11 9 8 6 4 2 2 0 1 3 4 4 5 8 10 12 13 14 15 14 13 13 12 11 10
3 3 3 3 4 5 6 7 9 10 11 12 13 13 14 14 13 13 12 11 10 9 7 4 3 1 1 2 3 4 4 5 7 9 11 11 11 11 11 11 11 10 8
2 3 3 2 2 2 3 5 6 8 9 10 11 11 12 12 13 13 13 12 12 10 9 6 4 2 1 2 2 3 3 3 4 5 8 8 8 8 7 7 8 8 7
1 2 2 2 2 2 1 2 4 5 7 7 8 9 9 10 11 11 12 12 12 12 10 8 6 4 2 1 2 2 2 2 2 3 4 5 5 6 5 4 4 4 5
2 3 3 3 3 3 2 0 1 2 4 5 6 7 7 8 9 9 10 11 12 12 11 9 7 5 3 1 1 1 2 2 2 3 3 3 3 4 3 3 2 2 2
4 4 4 4 4 4 3 2 1 1 2 3 4 5 6 6 7 8 8 9 10 10 11 10 8 7 5 3 1 1 2 2 3 3 2 2 2 3 3 2 1 1 1
5 6 6 6 6 6 6 5 4 4 4 4 5 5 5 5 6 7 7 7 8 8 9 9 9 8 6 4 3 2 2 2 3 3 2 2 3 2 2 2 1 1 0
6 7 7 7 8 8 8 8 8 7 7 6 6 6 6 6 6 6 7 7 7 6 7 7 7 7 6 5 4 3 3 3 3 3 3 3 2 2 2 2 1 1 0
8 8 8 8 9 10 10 11 11 10 10 9 8 8 8 7 7 7 7 7 7 6 6 5 5 5 5 5 4 3 3 3 3 3 2 2 2 2 2 2 1 0 0
13 12 11 11 11 11 12 12 13 13 12 11 11 10 10 9 9 9 9 9 8 7 6 5 5 5 4 4 3 3 2 2 2 3 3 3 3 3 3 3 2 2 2
17 17 15 14 13 13 14 14 14 14 14 13 13 12 12 11 12 12 12 11 10 10 9 7 6 6 5 4 3 2 1 1 2 3 3 3 4 4 3 4 4 3 3
21 20 19 19 18 17 16 16 16 16 16 15 15 15 14 14 14 14 14 13 12 12 11 10 9 8 8 7 6 4 3 3 3 3 4 4 5 4 4 4 4 4 5
24 23 22 22 22 21 20 19 19 19 19 18 17 17 16 16 16 16 16 15 14 14 13 12 11 11 11 10 8 7 6 6 5 5 5 6 6 6 6 5 5 5 6
27 27 26 26 25 24 24 23 23 22 22 21 20 20 19 19 18 18 18 17 16 16 15 14 14 13 13 13 12 10 9 9 8 8 7 8 7 7 7 7 7 7 7
32 31 31 30 29 28 27 26 26 26 26 24 23 23 22 21 21 21 20 19 18 18 17 17 16 16 16 16 15 14 12 12 11 11 10 10 10 10 10 10 10 9 9
36 36 35 34 33 32 30 28 28 28 29 28 26 26 25 24 24 24 23 22 21 20 20 19 18 18 18 18 17 17 16 15 15 14 13 13 13 13 13 13 12 12 12
40 39 39 38 37 37 35 33 32 31 30 29 28 28 28 27 27 27 26 25 23 23 22 22 21 20 20 20 20 19 19 19 18 18 17 17 17 16 16 16 15 15 14
44 43 44 43 42 40 39 37 36 34 32 30 30 30 29 29 28 29 29 28 26 25 25 25 24 23 22 22 21 22 22 21 21 21 21 21 20 20 19 18 18 17 17
49 49 47 46 45 44 42 41 39 38 36 34 32 31 31 32 31 30 30 29 28 27 27 27 27 26 25 24 23 24 24 24 24 24 24 23 23 22 21 21 20 20 20
48 50 49 47 46 46 45 43 42 40 38 37 36 35 34 34 34 32 29 28 29 29 29 30 29 28 27 27 26 25 25 25 26 25 26 26 25 24 23 23 23 22 22
46 47 48 47 46 44 45 44 42 41 40 38 38 37 36 36 36 34 32 31 31 31 31 31 31 30 29 28 27 26 26 26 26 26 27 27 26 26 25 25 25 24 24
41 42 43 43 44 43 43 43 41 39 39 39 39 39 38 38 36 35 34 33 33 31 30 30 31 32 31 30 29 28 27 27 26 27 27 28 28 27 26 26 27 27 26
33 35 36 37 37 37 39 40 39 39 38 37 37 37 37 37 37 35 35 34 33 32 31 31 31 32 32 32 31 30 29 29 29 28 28 29 29 29 29 29 29 29 28

GEFSSE_500_meanwind_048.txt.gz
Wind_Speed
10 11 11 12 12 13 13 13 13 13 13 12 11 10 9 8 7 6 6 5 4 4 4 4 5 6 8 9 11 13 16 16 17 17 15 14 12 10 9 9 9 9 9
8 9 10 10 10 11 11 12 12 13 12 12 12 11 11 10 9 8 7 5 4 4 3 3 4 4 5 6 8 10 12 14 16 16 16 15 13 12 12 11 11 11 10
7 7 8 8 8 9 9 10 11 11 11 12 12 12 11 11 10 9 8 6 5 4 4 3 3 3 4 4 5 6 8 11 12 14 15 15 14 13 12 11 11 11 10
6 6 6 6 6 7 7 8 9 9 10 10 11 11 12 11 11 10 9 8 6 5 4 3 3 3 3 3 3 4 5 8 9 11 13 13 13 13 12 11 10 10 10
6 6 6 5 5 5 6 6 6 7 8 8 9 10 10 11 11 11 10 9 7 6 5 4 3 2 2 2 2 3 4 5 6 8 9 10 11 11 10 10 10 9 9
6 7 6 6 5 5 5 5 4 5 6 6 7 8 9 9 10 10 10 9 8 7 6 4 3 2 2 2 3 2 3 4 4 6 7 7 8 8 8 7 7 7 7
6 7 7 7 7 6 6 5 4 4 4 4 5 6 6 7 8 8 8 8 8 7 6 5 4 3 2 2 2 3 3 3 3 4 5 5 6 6 6 5 4 4 4
7 7 8 8 9 9 8 7 6 5 4 4 3 3 4 5 5 6 6 7 7 7 6 5 5 4 3 2 2 3 3 3 3 4 4 4 4 4 4 4 3 1 1
8 9 9 10 10 10 10 10 9 8 7 5 4 3 2 2 3 3 4 4 5 5 5 5 5 4 3 2 3 3 4 4 4 4 4 4 4 4 4 4 3 2 1
8 10 11 12 12 13 13 13 12 11 10 9 7 6 5 4 3 2 2 2 2 3 3 4 4 4 4 3 3 3 4 5 5 6 5 5 5 5 5 4 4 3 2
9 10 12 13 14 15 16 16 15 14 13 12 11 10 8 7 5 4 3 3 2 1 1 1 2 3 3 3 3 3 4 5 6 6 6 6 6 6 6 6 5 4 3
12 12 13 15 16 16 17 18 18 18 17 16 15 13 12 10 8 7 6 5 4 3 2 2 1 1 2 2 3 3 4 5 6 7 7 6 6 5 6 6 5 4 3
16 16 17 17 18 19 20 20 20 20 20 19 18 17 15 14 12 10 9 7 7 6 5 4 4 3 2 1 2 3 4 4 5 6 6 6 6 6 6 5 5 4 4
21 20 21 21 22 23 23 24 24 23 23 22 21 20 19 17 15 13 12 10 9 9 8 7 7 6 5 4 4 3 4 4 5 6 6 6 6 6 6 6 5 5 5
24 24 24 25 26 26 27 27 27 27 26 25 24 23 22 21 19 17 15 14 12 11 11 10 10 9 9 7 7 6 6 6 6 6 7 7 7 7 7 7 7 6 6
28 28 28 29 30 30 31 31 30 29 29 28 28 27 26 24 23 21 19 17 15 14 13 13 12 12 12 11 10 9 9 8 8 8 8 8 8 8 8 8 8 8 8
33 33 32 33 33 33 33 33 33 34 33 31 31 30 29 28 27 25 22 19 17 16 15 14 14 14 14 14 13 12 12 11 11 11 11 10 11 11 10 10 10 10 10
38 38 37 38 37 36 35 36 36 36 37 35 34 33 31 30 28 27 25 22 20 19 18 17 16 16 16 16 15 15 15 14 14 14 14 13 13 13 13 13 13 12 12
42 43 43 43 42 41 40 39 38 38 37 37 37 35 33 32 30 28 27 25 23 22 21 20 19 18 17 17 17 17 17 17 17 17 17 17 16 16 17 16 16 15 15
44 45 46 47 47 47 45 44 42 40 39 39 39 39 38 35 33 31 30 28 26 24 23 22 21 21 20 19 19 19 19 19 20 19 19 20 20 19 19 19 19 18 18
44 46 47 49 50 49 49 48 47 44 43 42 41 38 38 37 35 34 31 29 27 25 24 23 22 22 22 21 21 21 21 22 22 22 22 22 22 22 21 22 22 22 21
44 45 47 48 49 50 51 51 50 49 47 46 44 42 39 36 35 34 33 32 30 27 26 25 24 24 24 24 23 23 23 23 24 24 25 25 25 25 25 24 24 24 24
42 43 44 46 47 48 49 50 50 50 51 50 47 44 42 38 36 34 33 33 31 28 26 26 26 24 24 24 25 25 25 25 26 26 26 27 27 27 27 27 26 26 26
37 38 40 42 44 45 47 47 49 49 49 49 47 47 45 42 39 36 33 31 29 28 27 27 26 25 25 26 26 27 28 27 27 28 28 28 28 28 28 28 28 28 27
29 30 32 34 36 39 40 42 44 45 46 47 46 45 44 43 40 37 34 32 30 29 28 28 27 27 26 26 27 27 28 29 29 29 29 29 30 30 30 29 29 29 29
23 23 24 25 27 30 33 34 37 40 41 42 43 43 43 41 39 37 36 34 32 31 30 30 29 29 28 28 28 28 29 30 32 31 30 31 31 31 31 30 30 30 30

GEFSSE_500_meanwind_054.txt.gz
Wind_Speed
5 6 7 7 7 7 7 7 8 8 8 8 7 6 5 4 3 2 1 2 3 3 4 5 6 7 8 9 9 11 13 14 15 14 13 12 11 9 8 8 8 8 8
4 4 5 5 5 5 6 6 6 6 7 7 7 6 6 5 4 3 2 2 2 3 3 4 5 6 7 8 8 9 11 13 15 15 14 14 13 11 10 10 9 9 9
4 3 3 3 3 3 4 4 4 5 5 5 6 6 6 6 5 4 3 3 2 2 2 3 4 5 6 7 8 9 10 11 13 13 14 15 13 12 11 10 9 9 8
5 4 4 3 3 3 2 2 2 2 3 4 4 5 5 5 5 4 4 3 3 2 2 2 3 3 4 5 6 7 8 9 10 11 11 12 11 11 10 9 8 8 8
6 6 6 5 4 4 3 3 2 2 1 2 3 3 4 5 5 5 4 4 3 2 2 2 2 3 3 4 4 4 5 6 7 9 9 9 8 8 8 8 7 7 7
7 8 8 8 7 6 6 5 4 3 3 2 1 2 2 3 3 4 4 3 3 3 2 2 2 2 3 3 3 3 4 4 5 6 6 7 6 6 6 6 6 6 6
8 9 10 10 10 9 9 8 7 6 5 4 3 2 1 1 1 2 2 3 3 2 2 2 2 2 2 2 3 3 3 3 3 4 5 5 4 5 4 4 3 3 3
10 10 11 11 12 12 12 11 10 9 8 7 6 5 4 3 2 1 0 1 2 2 2 2 2 1 2 2 3 3 3 3 3 4 4 4 4 4 4 3 2 1 0
11 12 13 13 13 13 13 13 13 12 11 10 9 8 7 6 5 4 3 2 1 1 1 2 2 1 1 2 2 3 3 3 4 4 4 4 3 3 4 3 3 2 2
13 13 14 15 15 15 15 15 15 15 14 13 13 12 10 9 8 7 6 5 4 2 1 1 1 1 1 1 2 3 3 3 4 4 4 4 4 4 4 4 4 3 3
16 16 16 16 16 17 17 18 18 18 17 17 16 15 14 13 11 10 9 8 7 6 4 2 1 1 0 0 1 3 3 3 4 5 4 4 4 5 5 4 4 3 3
19 19 19 19 19 19 19 20 20 20 21 20 20 19 18 16 15 13 12 11 10 9 7 5 4 3 2 1 2 3 3 4 5 5 5 5 4 4 5 5 4 3 3
24 24 24 24 24 23 23 23 23 24 24 24 23 23 22 20 18 17 15 14 13 12 10 9 7 6 5 4 3 3 3 4 4 5 5 5 5 4 5 5 4 3 3
29 28 28 28 28 28 27 27 26 26 27 28 27 26 25 24 22 20 19 17 16 14 13 12 10 9 8 6 6 5 4 5 5 5 6 6 5 5 5 5 4 4 3
32 32 32 32 32 32 31 31 30 30 30 31 31 30 28 27 25 23 22 21 19 18 16 15 14 12 11 10 9 8 7 6 6 7 7 7 6 6 6 6 6 5 4
36 36 36 36 36 36 35 34 34 33 34 33 34 33 32 30 29 28 26 24 23 21 20 18 17 16 14 13 12 11 10 10 8 8 8 8 8 8 8 7 7 7 6
39 40 40 40 40 40 39 39 39 38 36 36 35 36 35 34 32 30 29 28 27 25 24 22 20 19 17 16 15 14 13 12 11 11 10 10 10 10 9 9 9 8 8
42 42 43 43 43 44 44 43 43 42 41 39 38 38 37 36 34 32 31 30 30 28 26 25 23 21 20 19 18 17 16 16 14 14 13 12 12 12 11 11 11 11 10
42 43 43 44 45 46 46 46 45 46 45 44 42 40 39 38 36 35 34 32 32 31 29 28 27 24 23 22 21 20 19 18 18 17 16 15 15 15 14 14 14 13 13
39 41 42 43 44 46 47 47 48 48 47 46 44 43 41 37 36 35 35 33 32 32 32 31 29 27 26 25 23 22 21 21 20 20 19 18 18 17 17 17 16 16 16
37 38 40 41 43 44 45 46 46 47 47 47 46 45 44 41 38 35 36 35 34 33 33 33 31 29 27 26 25 24 23 23 22 22 22 21 21 20 20 19 19 19 18
35 36 37 38 40 41 43 45 46 46 47 48 47 46 44 43 41 40 37 36 36 35 33 33 32 31 30 29 27 26 25 25 25 24 24 23 23 22 22 22 22 21 21
32 32 33 35 36 37 39 40 42 44 46 46 46 45 45 44 44 42 39 37 36 34 34 35 34 33 32 31 30 27 27 27 26 25 25 25 25 24 24 24 24 23 23
29 31 32 32 32 33 33 35 37 40 42 44 44 44 45 45 44 44 42 40 39 37 35 34 35 34 33 33 32 30 29 29 27 26 26 26 26 26 26 26 25 25 25
26 27 28 28 28 28 28 29 31 34 37 39 41 42 43 43 42 42 42 42 40 39 38 35 33 35 35 34 33 32 30 29 28 27 27 27 27 27 27 26 26 26 26
22 22 22 22 23 23 24 25 27 28 31 34 36 39 40 40 40 40 39 39 39 36 35 36 34 34 35 34 33 33 32 30 29 28 28 28 27 27 27 26 27 27 27

GEFSSE_500_meanwind_060.txt.gz
Wind_Speed
3 4 4 5 6 6 6 6 6 6 6 6 6 6 5 5 4 3 2 2 3 5 7 8 10 11 12 14 15 14 14 14 15 14 12 11 10 9 9 8 8 8 7
1 1 2 2 3 3 4 4 4 4 4 5 5 5 5 4 4 3 2 2 2 3 5 7 8 9 11 12 12 13 12 13 14 14 13 13 12 11 11 10 9 8 6
2 2 1 1 1 1 1 1 2 2 2 3 3 3 4 3 3 3 3 2 1 2 4 5 7 8 9 10 11 11 11 12 13 14 14 14 13 12 12 10 9 7 6
4 4 3 3 3 3 3 2 2 2 2 2 2 2 2 2 2 3 3 2 2 2 3 4 5 7 7 8 9 9 10 11 12 13 13 13 13 13 11 10 9 7 6
6 6 6 6 6 5 5 5 5 4 4 3 3 2 2 2 2 2 2 2 2 1 2 3 4 5 6 7 7 8 9 9 9 10 11 11 11 10 10 9 8 7 6
7 7 8 8 8 8 8 8 7 7 6 6 5 4 4 3 2 2 2 2 2 2 2 2 3 4 4 5 5 6 6 7 8 8 8 9 9 9 8 8 7 6 5
8 9 9 9 10 11 11 10 10 10 9 8 7 7 6 5 4 3 3 2 2 2 2 2 2 3 3 3 4 4 4 5 6 6 6 6 7 7 7 6 6 4 3
9 10 11 11 11 12 13 13 13 12 12 11 10 9 8 8 7 6 5 4 3 3 3 3 3 3 3 3 3 3 3 4 4 4 5 6 6 6 6 5 4 3 3
11 12 12 13 13 14 14 15 15 15 15 14 13 12 11 10 9 8 7 6 5 4 4 3 3 3 3 3 3 3 3 4 4 4 4 5 5 5 5 5 5 4 4
14 14 15 15 16 16 17 17 17 17 17 17 16 16 15 14 13 11 10 9 8 6 5 5 4 4 4 4 3 3 4 4 4 4 4 5 5 5 5 5 5 5 5
18 18 18 18 18 19 19 19 20 20 20 19 19 19 18 17 16 15 13 13 11 10 8 7 5 5 4 4 4 4 5 5 4 4 5 6 5 5 5 5 6 6 5
23 23 23 23 22 22 21 22 22 22 21 22 22 22 22 21 20 19 17 16 15 13 12 10 8 7 6 5 5 5 6 6 5 5 6 6 6 6 6 7 7 6 6
29 29 28 28 27 27 26 25 25 24 24 24 24 24 24 23 24 23 21 20 18 17 15 14 12 10 8 7 6 6 7 6 6 6 6 6 6 6 7 7 7 7 6
33 33 32 32 32 31 31 30 30 28 27 27 27 26 26 25 25 25 25 24 22 21 19 17 15 14 12 10 9 8 8 8 7 7 7 7 7 7 7 7 7 7 6
36 36 36 37 36 36 35 34 33 32 32 31 31 29 28 28 27 26 27 27 26 25 23 21 19 17 15 13 12 11 10 9 9 9 8 8 8 8 8 8 8 8 7
37 38 39 39 39 39 39 38 36 36 35 34 33 33 31 30 29 29 30 30 30 28 26 25 23 21 19 17 15 14 13 12 12 12 11 10 10 9 9 9 9 8 8
38 39 39 40 41 41 41 41 40 40 39 38 37 36 35 32 31 31 31 31 32 31 30 28 26 24 22 20 18 17 16 15 15 14 13 12 12 11 11 10 10 9 8
37 38 39 39 40 40 41 42 42 42 41 41 40 39 37 36 35 33 32 31 31 32 32 30 29 27 26 24 22 20 19 18 18 17 15 14 14 13 13 12 12 11 10
35 36 37 38 38 39 40 40 42 42 42 41 41 41 40 39 37 35 34 32 32 32 32 32 30 29 28 27 26 24 23 21 21 20 19 17 16 15 15 14 14 13 12
32 33 34 35 36 36 37 37 38 40 41 41 41 41 42 41 40 39 37 35 34 32 32 33 33 31 30 29 28 27 27 25 23 22 22 20 19 17 16 16 16 15 15
29 30 31 32 33 33 34 34 35 37 38 39 40 41 41 42 42 41 40 39 36 33 32 33 33 33 32 31 30 29 29 28 26 25 24 23 22 21 19 18 18 17 17
27 27 28 28 28 29 31 32 33 34 36 37 39 40 40 41 42 43 42 40 39 37 34 33 33 31 32 32 31 30 30 30 29 28 27 26 25 23 22 21 20 20 19
24 24 24 25 25 25 27 28 30 31 33 34 36 38 39 39 41 41 42 42 41 39 36 34 33 33 31 32 32 30 30 31 31 30 29 28 26 25 24 23 22 21 21
22 21 20 20 20 21 22 24 26 28 30 32 33 35 36 37 38 39 40 41 41 40 37 35 35 34 32 32 33 33 33 33 33 31 31 29 28 27 26 25 24 24 23
21 20 18 17 17 18 19 20 22 24 25 27 29 31 33 34 36 38 39 40 40 39 38 36 37 35 34 33 33 34 35 34 34 33 32 31 29 28 28 27 27 26 26
20 19 17 16 15 15 15 16 17 19 21 23 25 27 29 31 34 36 37 38 39 39 38 38 38 37 36 35 35 35 35 35 36 35 35 34 32 31 29 28 27 27 27

GEFSSE_500_meanwind_066.txt.gz
Wind_Speed
3 3 3 3 4 4 5 6 7 7 7 7 7 7 6 6 5 4 3 1 1 3 5 7 8 9 9 10 11 12 13 13 12 12 12 12 11 10 10 9 9 8 8
3 3 3 3 3 3 3 3 4 4 5 5 5 5 5 5 4 4 3 2 1 2 3 4 6 7 9 10 11 11 12 12 13 13 13 13 12 11 11 10 9 9 8
4 4 5 4 4 3 3 2 2 2 3 3 3 3 4 4 3 3 3 3 2 2 2 3 4 5 7 8 10 11 11 12 12 12 13 13 12 12 11 11 10 9 7
5 6 7 6 5 5 4 4 3 2 2 2 2 2 2 2 3 3 3 3 3 3 2 2 3 4 5 7 8 9 10 11 11 11 12 12 12 12 12 11 10 9 7
7 8 9 8 8 7 7 6 5 4 4 3 3 2 2 2 2 2 3 3 3 3 3 3 3 3 4 6 7 8 9 10 10 10 11 11 11 11 11 10 9 8 6
9 10 10 10 10 10 9 9 8 7 6 6 5 4 4 4 3 3 3 3 3 3 3 3 3 3 4 5 6 7 8 8 9 9 9 9 10 10 10 9 8 7 6
11 12 12 13 12 12 11 11 11 10 9 9 8 7 6 6 5 5 4 4 3 4 4 4 4 3 3 4 5 6 6 7 7 8 7 7 7 8 7 7 6 5 5
14 13 13 14 14 14 14 14 13 13 13 12 11 10 9 9 8 7 6 5 5 4 4 4 4 4 4 3 4 4 5 5 6 6 6 5 5 5 5 5 5 4 4
16 16 16 16 15 15 16 16 17 16 16 16 15 14 13 12 11 10 9 8 7 6 5 5 5 5 4 4 4 4 4 4 4 4 4 4 4 4 4 4 4 4 4
19 19 19 18 18 18 18 19 19 19 19 19 19 18 16 15 15 13 12 11 10 8 8 7 6 6 5 5 5 5 4 4 3 4 4 4 4 3 3 4 5 5 5
22 22 21 22 22 22 21 21 21 20 21 21 21 20 20 19 18 17 15 14 13 11 10 9 8 7 7 6 6 6 5 4 4 3 4 4 4 4 4 4 5 5 5
27 27 26 26 26 26 25 25 25 24 23 22 21 21 21 21 20 19 19 18 17 15 13 12 11 10 9 8 7 7 6 5 5 4 4 5 5 5 4 5 5 5 5
31 31 31 31 31 31 31 31 30 28 27 26 24 23 23 23 23 22 22 21 20 19 17 15 14 12 11 10 9 8 7 6 6 5 5 5 6 6 5 5 5 6 6
34 34 35 34 35 35 35 35 35 34 33 31 29 28 26 25 26 26 25 23 23 22 21 19 17 16 14 13 12 10 9 8 7 6 6 6 7 6 6 5 6 7 6
34 35 36 37 37 37 37 37 37 37 37 36 35 33 31 30 29 29 28 26 25 24 23 23 21 19 17 15 14 13 12 10 9 8 8 7 7 7 7 7 8 7 7
34 35 35 36 36 37 39 39 40 40 39 39 39 38 36 34 33 32 31 29 28 26 25 25 23 22 21 19 17 16 15 14 13 11 10 9 9 9 8 8 9 9 9
34 35 35 35 36 36 37 39 40 40 40 40 41 41 40 39 37 33 32 31 30 29 28 26 26 25 24 23 21 20 18 17 16 14 13 12 11 10 10 10 10 10 10
32 33 33 34 35 35 36 37 38 39 40 41 41 42 43 43 42 39 36 33 32 31 31 29 27 27 27 27 25 24 22 20 19 18 16 14 13 13 12 12 11 11 11
29 30 31 31 32 34 34 35 36 37 38 40 41 42 43 44 43 42 41 39 36 34 32 30 28 27 27 29 29 28 26 25 22 21 19 18 16 15 15 14 13 13 12
26 27 27 28 29 31 32 32 33 34 35 36 38 40 41 42 44 44 44 42 40 37 34 33 31 28 27 29 30 30 29 28 26 24 22 21 19 18 17 16 16 15 14
24 23 23 24 25 27 28 29 30 31 32 33 35 37 39 41 42 44 45 44 43 40 38 35 33 31 29 29 30 31 32 30 29 27 25 23 22 21 20 18 17 17 16
22 22 22 21 21 21 22 23 24 26 27 29 31 33 35 38 40 41 44 45 45 43 40 38 35 33 31 31 31 32 33 33 31 30 28 27 25 24 23 21 20 19 18
22 22 21 20 19 19 18 19 20 21 23 25 27 30 33 35 38 39 42 44 45 45 43 41 39 36 34 32 32 33 32 33 33 32 31 29 28 27 26 24 23 21 20
22 21 20 20 19 17 16 16 17 17 19 21 24 26 29 32 35 37 40 42 44 45 45 44 42 39 37 35 33 33 33 34 34 34 33 31 31 30 28 27 26 25 23
22 21 20 20 18 17 16 15 15 15 17 19 21 23 25 28 30 33 36 40 43 44 44 44 44 42 41 38 36 35 34 34 35 35 34 33 32 32 31 30 28 27 26
22 21 21 20 19 18 17 16 15 15 15 16 18 20 23 24 27 29 32 35 39 41 43 44 44 44 44 42 40 39 36 35 35 35 36 35 34 34 33 32 31 30 28